EDW438 LSZH-LDSP

Flight info

Callsign EDW438
Flight time 1h 11m
Altitude 37000
Route DEGES Z2 XEBIX L607 ELMEM N606 GIRIS DCT NIVAS DCT BADOP DCT BABAG DCT PEVAL DCT MINTU DCT SAL
Aircraft A320/M-SDE2E3FGHIJ1RWXY/LB1

Departure

Time 2026-02-19 13:23
Airport Zürich Airport (LSZH)

Arrival

Time 2026-02-19 14:34
Airport Split Saint Jerome Airport (LDSP)
Time Latitude Longitude Altitude Speed Heading
2026-02-19 13:04 47.45184 8.55751 1407 ft 0 kts 186°
2026-02-19 13:07 47.45185 8.55751 1407 ft 1 kts 186°
2026-02-19 13:07 47.45202 8.55752 1411 ft 3 kts 178°
2026-02-19 13:08 47.45222 8.55749 1409 ft 3 kts 164°
2026-02-19 13:08 47.45255 8.55720 1414 ft 3 kts 127°
2026-02-19 13:08 47.45266 8.55695 1410 ft 3 kts 109°
2026-02-19 13:09 47.45271 8.55667 1406 ft 3 kts 97°
2026-02-19 13:09 47.45272 8.55637 1406 ft 2 kts 92°
2026-02-19 13:09 47.45273 8.55621 1413 ft 2 kts 90°
2026-02-19 13:09 47.45271 8.55596 1408 ft 3 kts 55°
2026-02-19 13:10 47.45258 8.55581 1414 ft 3 kts
2026-02-19 13:10 47.45239 8.55582 1406 ft 3 kts 346°
2026-02-19 13:10 47.45219 8.55591 1411 ft 3 kts 338°
2026-02-19 13:10 47.45203 8.55601 1413 ft 1 kts 335°
2026-02-19 13:11 47.45201 8.55602 1413 ft 0 kts 335°
2026-02-19 13:17 47.45221 8.55590 1411 ft 8 kts 339°
2026-02-19 13:17 47.45299 8.55558 1407 ft 15 kts 342°
2026-02-19 13:17 47.45416 8.55481 1406 ft 20 kts 334°
2026-02-19 13:18 47.45552 8.55385 1402 ft 23 kts 334°
2026-02-19 13:18 47.45705 8.55299 1406 ft 22 kts 340°
2026-02-19 13:18 47.45853 8.55200 1406 ft 24 kts 334°
2026-02-19 13:18 47.46012 8.55091 1395 ft 27 kts 335°
2026-02-19 13:19 47.46185 8.54970 1389 ft 28 kts 334°
2026-02-19 13:19 47.46361 8.54849 1386 ft 24 kts 335°
2026-02-19 13:19 47.46505 8.54751 1388 ft 22 kts 335°
2026-02-19 13:19 47.46602 8.54684 1393 ft 9 kts 335°
2026-02-19 13:20 47.46667 8.54640 1393 ft 13 kts 335°
2026-02-19 13:20 47.46864 8.54380 1381 ft 23 kts 319°
2026-02-19 13:20 47.46993 8.54243 1382 ft 23 kts 314°
2026-02-19 13:21 47.47001 8.54034 1381 ft 15 kts 228°
2026-02-19 13:21 47.46931 8.54035 1380 ft 0 kts 155°
2026-02-19 13:22 47.46827 8.54106 1382 ft 50 kts 155°
2026-02-19 13:22 47.46302 8.54468 1385 ft 113 kts 155°
2026-02-19 13:22 47.45432 8.55059 1412 ft 159 kts 155°
2026-02-19 13:22 47.44394 8.55689 1955 ft 163 kts 160°
2026-02-19 13:23 47.43415 8.56534 2689 ft 169 kts 135°
2026-02-19 13:23 47.42989 8.58226 3191 ft 188 kts 95°
2026-02-19 13:23 47.43188 8.60147 3776 ft 194 kts 66°
2026-02-19 13:23 47.43971 8.61756 4348 ft 194 kts 41°
2026-02-19 13:24 47.44939 8.63170 4818 ft 203 kts 38°
2026-02-19 13:24 47.46409 8.67219 5012 ft 251 kts 90°
2026-02-19 13:25 47.46483 8.72773 5528 ft 294 kts 91°
2026-02-19 13:25 47.46516 8.75841 6245 ft 302 kts 90°
2026-02-19 13:25 47.46569 8.78968 7086 ft 305 kts 88°
2026-02-19 13:25 47.46616 8.82095 8002 ft 305 kts 94°
2026-02-19 13:26 47.46290 8.85194 8871 ft 306 kts 103°
2026-02-19 13:26 47.45856 8.88274 9724 ft 307 kts 103°
2026-02-19 13:26 47.45399 8.91430 10144 ft 325 kts 103°
2026-02-19 13:26 47.44908 8.94809 10356 ft 348 kts 103°
2026-02-19 13:27 47.44391 8.98384 10779 ft 361 kts 103°
2026-02-19 13:27 47.44037 9.00848 11234 ft 365 kts 102°
2026-02-19 13:27 47.43511 9.04527 11975 ft 368 kts 103°
2026-02-19 13:27 47.42983 9.08239 12704 ft 371 kts 103°
2026-02-19 13:28 47.42445 9.11981 13437 ft 374 kts 103°
2026-02-19 13:28 47.41354 9.19492 14735 ft 379 kts 102°
2026-02-19 13:28 47.41107 9.23351 15381 ft 380 kts 85°
2026-02-19 13:29 47.41746 9.27122 16020 ft 381 kts 66°
2026-02-19 13:29 47.42714 9.30765 16674 ft 383 kts 72°
2026-02-19 13:29 47.43389 9.34574 17327 ft 384 kts 76°
2026-02-19 13:29 47.44015 9.38418 17953 ft 386 kts 76°
2026-02-19 13:30 47.44624 9.42287 18491 ft 388 kts 77°
2026-02-19 13:30 47.45220 9.46194 19016 ft 390 kts 78°
2026-02-19 13:30 47.45804 9.50120 19497 ft 393 kts 78°
2026-02-19 13:30 47.46385 9.54069 19640 ft 393 kts 78°
2026-02-19 13:31 47.46936 9.58013 19676 ft 392 kts 82°
2026-02-19 13:31 47.47137 9.62020 19676 ft 391 kts 92°
2026-02-19 13:31 47.46961 9.66022 19825 ft 391 kts 96°
2026-02-19 13:31 47.46739 9.70031 20419 ft 391 kts 96°
2026-02-19 13:32 47.46516 9.74046 20957 ft 393 kts 96°
2026-02-19 13:32 47.46068 9.82151 21946 ft 398 kts 96°
2026-02-19 13:32 47.45838 9.86234 22413 ft 400 kts 97°
2026-02-19 13:33 47.45606 9.90343 22873 ft 403 kts 97°
2026-02-19 13:33 47.45374 9.94480 23322 ft 405 kts 97°
2026-02-19 13:33 47.45143 9.98582 23715 ft 407 kts 97°
2026-02-19 13:33 47.44904 10.02757 24124 ft 408 kts 97°
2026-02-19 13:34 47.44662 10.06942 24480 ft 410 kts 97°
2026-02-19 13:34 47.44416 10.11145 24852 ft 412 kts 97°
2026-02-19 13:34 47.44167 10.15363 25242 ft 413 kts 97°
2026-02-19 13:34 47.43832 10.19576 25638 ft 412 kts 103°
2026-02-19 13:35 47.43282 10.23736 26012 ft 413 kts 103°
2026-02-19 13:35 47.42723 10.27903 26401 ft 415 kts 104°
2026-02-19 13:35 47.42157 10.32084 26784 ft 416 kts 104°
2026-02-19 13:35 47.41587 10.36273 27164 ft 417 kts 104°
2026-02-19 13:36 47.40869 10.40407 27539 ft 416 kts 112°
2026-02-19 13:36 47.38027 10.47737 28241 ft 411 kts 132°
2026-02-19 13:36 47.35993 10.50691 28604 ft 410 kts 142°
2026-02-19 13:37 47.33628 10.53062 28885 ft 411 kts 152°
2026-02-19 13:37 47.31192 10.54985 29209 ft 412 kts 152°
2026-02-19 13:37 47.28654 10.56989 29436 ft 415 kts 152°
2026-02-19 13:37 47.26102 10.59008 29684 ft 417 kts 152°
2026-02-19 13:38 47.23535 10.61039 29905 ft 420 kts 152°
2026-02-19 13:38 47.20959 10.63075 30115 ft 422 kts 152°
2026-02-19 13:38 47.18361 10.65127 30328 ft 425 kts 153°
2026-02-19 13:38 47.15677 10.66930 30606 ft 424 kts 160°
2026-02-19 13:39 47.12908 10.68448 30888 ft 425 kts 160°
2026-02-19 13:39 47.10140 10.69966 31161 ft 425 kts 160°
2026-02-19 13:39 47.07364 10.71490 31413 ft 427 kts 161°
2026-02-19 13:40 47.01782 10.74547 31979 ft 426 kts 161°
2026-02-19 13:40 46.96252 10.77634 32664 ft 425 kts 161°
2026-02-19 13:40 46.93488 10.79206 32937 ft 426 kts 161°
2026-02-19 13:41 46.90726 10.80777 33232 ft 427 kts 162°
2026-02-19 13:41 46.87960 10.82346 33506 ft 427 kts 162°
2026-02-19 13:41 46.85181 10.83915 33745 ft 429 kts 162°
2026-02-19 13:41 46.82400 10.85482 33944 ft 430 kts 162°
2026-02-19 13:42 46.79634 10.87177 34147 ft 434 kts 156°
2026-02-19 13:42 46.77075 10.89456 34325 ft 440 kts 147°
2026-02-19 13:42 46.74759 10.92404 34508 ft 446 kts 137°
2026-02-19 13:42 46.72683 10.95794 34687 ft 449 kts 135°
2026-02-19 13:43 46.70612 10.99210 34882 ft 450 kts 136°
2026-02-19 13:43 46.68529 11.02627 35024 ft 451 kts 136°
2026-02-19 13:43 46.66445 11.06027 35244 ft 450 kts 136°
2026-02-19 13:43 46.64354 11.09428 35450 ft 451 kts 137°
2026-02-19 13:44 46.62263 11.12828 35582 ft 452 kts 137°
2026-02-19 13:44 46.58054 11.19669 35843 ft 455 kts 136°
2026-02-19 13:44 46.55941 11.23102 36004 ft 456 kts 136°
2026-02-19 13:45 46.53822 11.26543 36245 ft 457 kts 136°
2026-02-19 13:45 46.51701 11.29986 36421 ft 458 kts 137°
2026-02-19 13:45 46.49574 11.33434 36594 ft 459 kts 137°
2026-02-19 13:45 46.47441 11.36888 36662 ft 459 kts 137°
2026-02-19 13:46 46.43182 11.43770 36672 ft 458 kts 137°
2026-02-19 13:46 46.38918 11.50620 36618 ft 458 kts 137°
2026-02-19 13:47 46.34640 11.57471 36624 ft 459 kts 137°
2026-02-19 13:47 46.30365 11.64321 36623 ft 459 kts 137°
2026-02-19 13:48 46.23935 11.74589 36635 ft 459 kts 137°
2026-02-19 13:49 46.19647 11.81417 36627 ft 459 kts 137°
2026-02-19 13:49 46.15379 11.88193 36629 ft 459 kts 137°
2026-02-19 13:50 46.11075 11.94997 36631 ft 459 kts 137°
2026-02-19 13:50 46.06772 12.01799 36612 ft 459 kts 138°
2026-02-19 13:51 46.02471 12.08581 36615 ft 459 kts 139°
2026-02-19 13:51 45.98160 12.15363 36610 ft 459 kts 139°
2026-02-19 13:52 45.93846 12.22123 36603 ft 459 kts 139°
2026-02-19 13:52 45.87400 12.32293 36569 ft 460 kts 137°
2026-02-19 13:53 45.83235 12.39288 36572 ft 462 kts 136°
2026-02-19 13:53 45.79089 12.46323 36573 ft 461 kts 137°
2026-02-19 13:54 45.74911 12.53296 36571 ft 461 kts 137°
2026-02-19 13:54 45.70710 12.60229 36569 ft 461 kts 137°
2026-02-19 13:55 45.66497 12.67161 36544 ft 462 kts 137°
2026-02-19 13:55 45.62284 12.74096 36539 ft 463 kts 137°
2026-02-19 13:56 45.55945 12.84508 36551 ft 463 kts 137°
2026-02-19 13:57 45.51704 12.91437 36564 ft 464 kts 138°
2026-02-19 13:57 45.47456 12.98349 36532 ft 464 kts 138°
2026-02-19 13:58 45.43190 13.05269 36545 ft 465 kts 138°
2026-02-19 13:58 45.38918 13.12192 36541 ft 466 kts 138°
2026-02-19 13:59 45.34630 13.19113 36569 ft 467 kts 138°
2026-02-19 13:59 45.30336 13.26016 36551 ft 466 kts 139°
2026-02-19 14:00 45.25955 13.32783 36573 ft 464 kts 140°
2026-02-19 14:00 45.19314 13.42785 36603 ft 464 kts 140°
2026-02-19 14:01 45.14898 13.49465 36610 ft 464 kts 140°
2026-02-19 14:01 45.10489 13.56157 36588 ft 465 kts 140°
2026-02-19 14:02 45.06076 13.62843 36609 ft 465 kts 140°
2026-02-19 14:02 45.01651 13.69528 36618 ft 466 kts 140°
2026-02-19 14:03 44.97216 13.76196 36635 ft 466 kts 141°
2026-02-19 14:03 44.92807 13.82811 36633 ft 466 kts 141°
2026-02-19 14:04 44.83910 13.96118 36623 ft 466 kts 141°
2026-02-19 14:05 44.79442 14.02742 36633 ft 466 kts 141°
2026-02-19 14:05 44.74977 14.09367 36646 ft 467 kts 141°
2026-02-19 14:06 44.72742 14.12688 36376 ft 466 kts 141°
2026-02-19 14:06 44.70520 14.15991 36083 ft 465 kts 141°
2026-02-19 14:06 44.68301 14.19287 35820 ft 463 kts 142°
2026-02-19 14:06 44.66085 14.22575 35574 ft 462 kts 142°
2026-02-19 14:07 44.63872 14.25845 35317 ft 461 kts 142°
2026-02-19 14:07 44.61660 14.29104 35071 ft 461 kts 143°
2026-02-19 14:07 44.59496 14.32284 34839 ft 460 kts 143°
2026-02-19 14:07 44.57288 14.35526 34593 ft 459 kts 143°
2026-02-19 14:08 44.55080 14.38766 34355 ft 459 kts 143°
2026-02-19 14:08 44.50676 14.45223 33848 ft 458 kts 144°
2026-02-19 14:08 44.48474 14.48451 33609 ft 458 kts 144°
2026-02-19 14:09 44.46271 14.51675 33265 ft 458 kts 144°
2026-02-19 14:09 44.44052 14.54909 32275 ft 463 kts 144°
2026-02-19 14:09 44.41842 14.58134 31821 ft 455 kts 144°
2026-02-19 14:09 44.39657 14.61326 31203 ft 452 kts 144°
2026-02-19 14:10 44.37494 14.64481 30604 ft 448 kts 144°
2026-02-19 14:10 44.35345 14.67609 30022 ft 444 kts 144°
2026-02-19 14:10 44.33160 14.70574 29417 ft 431 kts 150°
2026-02-19 14:10 44.30889 14.73262 28870 ft 425 kts 150°
2026-02-19 14:11 44.28656 14.75909 28334 ft 419 kts 150°
2026-02-19 14:11 44.26446 14.78528 27826 ft 414 kts 150°
2026-02-19 14:11 44.24261 14.81113 27297 ft 409 kts 150°
2026-02-19 14:11 44.22101 14.83662 26786 ft 404 kts 150°
2026-02-19 14:12 44.19970 14.86171 26296 ft 399 kts 149°
2026-02-19 14:12 44.15777 14.91099 25303 ft 390 kts 149°
2026-02-19 14:12 44.13714 14.93522 24848 ft 385 kts 149°
2026-02-19 14:13 44.11679 14.95913 24390 ft 381 kts 149°
2026-02-19 14:13 44.09666 14.98275 23938 ft 376 kts 149°
2026-02-19 14:13 44.07679 15.00604 23539 ft 372 kts 149°
2026-02-19 14:13 44.05737 15.02880 23086 ft 368 kts 149°
2026-02-19 14:14 44.03794 15.05157 22644 ft 363 kts 149°
2026-02-19 14:14 44.01879 15.07399 22232 ft 357 kts 148°
2026-02-19 14:14 43.99994 15.09602 21830 ft 352 kts 149°
2026-02-19 14:14 43.98130 15.11774 21408 ft 348 kts 149°
2026-02-19 14:15 43.96287 15.13916 21009 ft 344 kts 149°
2026-02-19 14:15 43.94456 15.16040 20588 ft 342 kts 148°
2026-02-19 14:15 43.92640 15.18154 20167 ft 339 kts 148°
2026-02-19 14:15 43.90852 15.20279 19740 ft 338 kts 147°
2026-02-19 14:16 43.89121 15.22362 19336 ft 337 kts 147°
2026-02-19 14:16 43.86187 15.25900 18611 ft 336 kts 147°
2026-02-19 14:16 43.84426 15.28017 18187 ft 335 kts 147°
2026-02-19 14:17 43.82668 15.30125 17717 ft 334 kts 147°
2026-02-19 14:17 43.80917 15.32220 17276 ft 333 kts 147°
2026-02-19 14:17 43.79165 15.34314 16852 ft 332 kts 147°
2026-02-19 14:17 43.77422 15.36400 16438 ft 331 kts 147°
2026-02-19 14:18 43.75682 15.38478 16016 ft 330 kts 147°
2026-02-19 14:18 43.73946 15.40547 15594 ft 329 kts 147°
2026-02-19 14:18 43.72213 15.42606 15174 ft 329 kts 147°
2026-02-19 14:18 43.70478 15.44667 14743 ft 329 kts 147°
2026-02-19 14:19 43.68745 15.46724 14320 ft 329 kts 146°
2026-02-19 14:19 43.67007 15.48785 13893 ft 329 kts 146°
2026-02-19 14:19 43.65271 15.50840 13463 ft 329 kts 147°
2026-02-19 14:19 43.63534 15.52903 12989 ft 329 kts 147°
2026-02-19 14:20 43.58368 15.59040 11616 ft 325 kts 146°
2026-02-19 14:20 43.56657 15.61062 11149 ft 323 kts 145°
2026-02-19 14:21 43.54951 15.63074 10683 ft 322 kts 144°
2026-02-19 14:21 43.53253 15.65076 10201 ft 320 kts 144°
2026-02-19 14:21 43.51583 15.67050 9979 ft 310 kts 145°
2026-02-19 14:21 43.49977 15.68951 9848 ft 298 kts 144°
2026-02-19 14:22 43.48434 15.70772 9721 ft 287 kts 146°
2026-02-19 14:22 43.46947 15.72522 9581 ft 276 kts 146°
2026-02-19 14:22 43.45495 15.74224 9276 ft 273 kts 147°
2026-02-19 14:22 43.44060 15.75902 8930 ft 270 kts 145°
2026-02-19 14:23 43.42635 15.77567 8569 ft 268 kts 146°
2026-02-19 14:23 43.41133 15.78973 8240 ft 254 kts 164°
2026-02-19 14:23 43.39444 15.79352 7891 ft 242 kts 187°
2026-02-19 14:23 43.37867 15.78683 7688 ft 239 kts 210°
2026-02-19 14:24 43.36583 15.77174 7487 ft 245 kts 222°
2026-02-19 14:24 43.34235 15.73861 7089 ft 241 kts 223°
2026-02-19 14:24 43.33003 15.72289 6896 ft 239 kts 210°
2026-02-19 14:25 43.31450 15.71582 6700 ft 240 kts 184°
2026-02-19 14:25 43.29829 15.72077 6505 ft 251 kts 156°
2026-02-19 14:25 43.28461 15.73624 6300 ft 258 kts 142°
2026-02-19 14:25 43.27184 15.75344 6086 ft 257 kts 143°
2026-02-19 14:26 43.25917 15.77069 5861 ft 256 kts 143°
2026-02-19 14:26 43.24756 15.78930 5666 ft 264 kts 126°
2026-02-19 14:26 43.24362 15.81445 5446 ft 284 kts 91°
2026-02-19 14:26 43.25067 15.84024 5226 ft 299 kts 59°
2026-02-19 14:27 43.26397 15.86250 4997 ft 303 kts 51°
2026-02-19 14:27 43.27878 15.88309 4758 ft 304 kts 48°
2026-02-19 14:27 43.29414 15.90306 4530 ft 304 kts 47°
2026-02-19 14:27 43.30949 15.92295 4302 ft 302 kts 49°
2026-02-19 14:28 43.32446 15.94269 4146 ft 292 kts 50°
2026-02-19 14:28 43.35203 15.98009 3921 ft 266 kts 52°
2026-02-19 14:28 43.36477 15.99780 3780 ft 256 kts 53°
2026-02-19 14:29 43.37697 16.01487 3692 ft 245 kts 53°
2026-02-19 14:29 43.38868 16.03130 3600 ft 236 kts 54°
2026-02-19 14:29 43.39994 16.04713 3494 ft 228 kts 54°
2026-02-19 14:29 43.41033 16.06308 3338 ft 219 kts 62°
2026-02-19 14:30 43.41931 16.07953 3232 ft 210 kts 64°
2026-02-19 14:30 43.42767 16.09534 3083 ft 199 kts 65°
2026-02-19 14:30 43.43523 16.11058 2947 ft 187 kts 67°
2026-02-19 14:30 43.44260 16.12480 2849 ft 176 kts 67°
2026-02-19 14:31 43.44978 16.13798 2739 ft 170 kts 67°
2026-02-19 14:31 43.45701 16.15108 2535 ft 170 kts 67°
2026-02-19 14:31 43.46424 16.16407 2355 ft 170 kts 66°
2026-02-19 14:31 43.47118 16.17640 2110 ft 156 kts 66°
2026-02-19 14:32 43.47758 16.18780 1900 ft 145 kts 69°
2026-02-19 14:32 43.48931 16.20883 1493 ft 135 kts 67°
2026-02-19 14:32 43.49502 16.21909 1314 ft 132 kts 64°
2026-02-19 14:33 43.50074 16.22938 1115 ft 136 kts 61°
2026-02-19 14:33 43.50662 16.23952 931 ft 134 kts 56°
2026-02-19 14:33 43.51226 16.24972 727 ft 132 kts 63°
2026-02-19 14:33 43.51814 16.25948 545 ft 136 kts 59°
2026-02-19 14:34 43.52409 16.26997 362 ft 140 kts 63°
2026-02-19 14:34 43.52969 16.28088 193 ft 138 kts 62°
2026-02-19 14:34 43.53507 16.29085 87 ft 116 kts 58°
2026-02-19 14:34 43.53834 16.29690 68 ft 36 kts 50°
2026-02-19 14:35 43.53888 16.29785 70 ft 14 kts 53°
2026-02-19 14:35 43.53951 16.29900 67 ft 17 kts 53°
2026-02-19 14:35 43.54034 16.30048 59 ft 20 kts 53°
2026-02-19 14:35 43.53978 16.30091 65 ft 13 kts 196°
2026-02-19 14:36 43.53905 16.30052 65 ft 10 kts 213°
2026-02-19 14:36 43.53832 16.29927 64 ft 7 kts 232°
2026-02-19 14:36 43.53804 16.29876 61 ft 6 kts 232°
2026-02-19 14:37 43.53780 16.29833 58 ft 5 kts 233°
2026-02-19 14:37 43.53759 16.29805 66 ft 3 kts 195°
2026-02-19 14:37 43.53750 16.29818 62 ft 2 kts 118°
2026-02-19 14:37 43.53739 16.29843 62 ft 4 kts 120°
2026-02-19 14:38 43.53731 16.29866 64 ft 2 kts 116°
2026-02-19 14:38 43.53729 16.29873 68 ft 0 kts 116°
2026-02-19 14:50 43.24711 15.79048 68 ft 0 kts 124°
2026-02-19 14:50 43.24377 15.81646 5431 ft 285 kts 89°